User: anonymous   Login
Location: Bergnershof
(48.9468°N, 10.9431°E)
Time: 03:02:23
(UTC+00:00)
Language:

Meteor 2-20 Rocket - Orbit

View from above orbital plane
View from above orbital plane
View from above satellite
View from above satellite

Ground track
Ground track

The orbit data is extracted from the following two-line orbital elements,

1 20827U 90086B   21125.41130665  .00000020  00000-0  44920-5 0  9995
2 20827  82.5273 251.1372 0011690 240.0883 119.9116 13.83904280545539
Epoch (UTC): 05 May 2021 09:52:16
Eccentricity: 0.0011690
inclination: 82.5273°
perigee height: 941 km
apogee height: 958 km
right ascension of ascending node: 251.1372°
argument of perigee: 240.0883°
revolutions per day: 13.83904280
mean anomaly at epoch: 119.9116°
orbit number at epoch: 54553

The dashed part of the orbit path shows where the satellite is in the earth's shadow,  

DLR